[[{"header":{"parameterUnit":"m.s-1","parameterCategory":1,"la1":30.2991,"la2":30.254,"lo1":-89.0895,"lo2":-89.0444,"dy":0.0017,"dx":0.0017,"nx":28,"ny":28,"refTime":"2024-04-27T21:00:00:Z","depth":0,"parameterNumber":2,"parameterNumberName":"U-component_of_WINDS"},"data":[0,0,0,0,0,0,0,0,0,0,0,0,0,0,0,0,0,0,0,0,0,0,0,0,0,0,0,0,0,0,0,0,0,0,0,0,0,0,0,0,0,0,0,0,0,0,0,0,0,0,0,0,0,0,0,0,0,0,-6.4032,-6.4034,0,-6.4179,-6.4181,-6.4182,-6.4165,-6.4162,-6.416,-6.4158,-6.4304,-6.431,-6.4316,0,0,0,0,0,0,0,0,0,0,0,0,0,-6.3734,-6.3739,-6.4032,-6.4034,-6.4036,-6.4179,-6.4181,-6.4183,-6.4165,-6.4162,-6.4159,-6.4157,-6.4302,-6.4309,-6.4317,0,0,0,0,0,0,0,0,0,0,0,0,0,-6.387,-6.3741,-6.4032,-6.4044,-6.4047,-6.4178,-6.4181,-6.4183,-6.4166,-6.4162,-6.4159,-6.4155,-6.43,-6.4309,-6.4318,-6.4445,0,0,-6.4346,-6.435,0,0,0,0,0,0,0,0,-6.3862,-6.3881,-6.4041,-6.4044,-6.4047,-6.415,-6.4129,-6.4271,-6.4167,-6.4121,-6.4158,-6.4154,-6.4255,-6.4268,-6.4303,-6.4452,-6.4458,-6.4346,-6.4352,-6.4356,-6.4358,0,0,0,0,0,0,0,-6.3853,-6.3875,-6.409,-6.4043,-6.4047,-6.4042,-6.4057,-6.4156,-6.4206,-6.4124,-6.4123,-6.4141,-6.4256,-6.4294,-6.4306,-6.446,-6.4346,-6.4354,-6.436,-6.4363,-6.4719,-6.4723,0,0,0,0,0,0,-6.3841,-6.3867,-6.4085,-6.4094,-6.3944,-6.405,-6.4067,-6.412,-6.4205,-6.4214,-6.4144,-6.414,-6.4281,-6.4296,-6.4312,-6.4464,-6.4356,-6.4364,-6.437,-6.4715,-6.472,-6.4724,0,0,0,0,0,0,-6.3834,-6.386,-6.4079,-6.3981,-6.4008,-6.4059,-6.4119,-6.4125,-6.4163,-6.422,-6.4228,-6.4174,-6.4278,-6.4299,-6.4412,-6.4469,-6.4368,-6.4377,-6.4711,-6.4717,-6.4722,-6.4772,0,0,0,0,0,0,-6.3826,-6.3858,-6.3907,-6.3982,-6.4013,-6.4178,-6.4122,-6.4131,-6.4179,-6.4175,-6.425,-6.4259,-6.4277,-6.4398,-6.4421,-6.448,-6.4384,-6.4706,-6.4713,-6.472,-6.4765,-6.4778,-6.479,0,0,0,0,0,-6.3815,-6.3915,-6.391,-6.3936,-6.4076,-6.4182,-6.4199,-6.422,-6.4184,-6.4233,-6.427,-6.4256,-6.446,-6.441,-6.4435,-6.4498,-6.4702,-6.4711,-6.472,-6.4759,-6.4776,-6.479,0,0,0,0,0,0,-6.3844,-6.3925,-6.392,-6.4047,-6.4108,-6.4178,-6.4241,-6.4237,-6.4307,-6.43,-6.4321,-6.4339,-6.4452,-6.4487,-6.443,-6.4625,-6.4576,-6.4591,-6.4597,-6.4614,-6.4626,-6.4613,-6.4391,0,0,0,0,0,-6.3866,-6.3945,-6.4011,-6.4117,-6.4148,-6.419,-6.4236,-6.4247,-6.431,-6.4335,-6.438,-6.444,-6.4518,-6.4568,-6.4643,-6.4772,-6.4786,-6.4827,-6.484,-6.485,-6.4861,-6.493,-6.4948,-6.4754,-6.4754,-6.4754,0,0,-6.391,-6.3964,-6.4012,-6.4124,-6.4172,-6.4253,-6.4211,-6.4298,-6.4358,-6.4348,-6.4457,-6.4493,-6.4562,-6.4683,-6.4738,-6.4715,-6.4918,-6.4861,-6.4869,-6.4874,-6.4941,-6.4959,-6.4975,-6.476,-6.4759,-6.4758,0,0,-6.4031,-6.4081,-6.4174,-6.4224,-6.4298,-6.4325,-6.4348,-6.442,-6.4443,-6.4554,-6.4548,-6.4619,-6.4753,-6.4802,-6.4845,-6.4988,-6.4977,-6.5012,-6.5075,-6.5142,-6.5157,-6.5171,-6.5219,-6.5237,-6.5023,-6.5023,-6.5024,0,-6.4075,-6.4198,-6.4221,-6.431,-6.4358,-6.4356,-6.4449,-6.4496,-6.459,-6.4623,-6.4597,-6.4765,-6.4812,-6.4943,-6.4978,-6.5014,-6.5039,-6.5001,-6.5154,-6.5168,-6.5181,-6.5227,-6.5245,-6.5027,-6.5026,-6.5026,-6.5026,0,-6.4248,-6.4334,-6.44,-6.4492,-6.4549,-6.4639,-6.4675,-6.473,-6.4737,-6.4767,-6.4879,-6.4936,-6.5021,-6.5054,-6.5061,-6.5187,-6.517,-6.5149,-6.5099,-6.5202,-6.5246,-6.5264,-6.5032,-6.5031,-6.503,-6.5029,0,0,-6.4388,-6.4494,-6.4517,-6.4559,-6.4642,-6.4708,-6.4799,-6.4884,-6.4929,-6.4996,-6.507,-6.5185,-6.5166,-6.5215,-6.5228,-6.5287,-6.5394,-6.5258,-6.526,-6.5279,-6.5533,-6.5546,-6.5566,-6.5389,-6.5393,-6.5396,-6.5526,0,-6.4514,-6.4675,-6.4699,-6.484,-6.4918,-6.4918,-6.4997,-6.5056,-6.5087,-6.5158,-6.5192,-6.5272,-6.5242,-6.5271,-6.5331,-6.5368,-6.5444,-6.536,-6.5456,-6.5459,-6.5435,-6.5589,-6.5603,-6.5723,-6.5544,-6.5547,-6.5549,0,-6.4683,-6.4754,-6.4903,-6.4976,-6.501,-6.508,-6.516,-6.5228,-6.5295,-6.5314,-6.5369,-6.5375,-6.5468,-6.5418,-6.5545,-6.5487,-6.5529,-6.5554,-6.5559,-6.5565,-6.5507,-6.5596,-6.5763,-6.5779,-6.5577,-6.5574,-6.5572,0,-6.4765,-6.49,-6.5006,-6.5042,-6.513,-6.5179,-6.5218,-6.5282,-6.5332,-6.5402,-6.5434,-6.5515,-6.5557,-6.5619,-6.5646,-6.5608,-6.5771,-6.5724,-6.5787,-6.5786,-6.5817,-6.5814,-6.5989,-6.5851,-6.5851,-6.5851,-6.585,0,-6.4902,-6.4992,-6.5044,-6.5109,-6.521,-6.5238,-6.5337,-6.5374,-6.5431,-6.5502,-6.5509,-6.5575,-6.5609,-6.5681,-6.5704,-6.5804,-6.5824,-6.584,-6.5844,-6.5838,-6.5835,-6.5862,-6.5853,-6.5855,-6.5854,-6.5853,-6.5853,0,-6.5009,-6.5048,-6.5163,-6.5238,-6.5259,-6.533,-6.5394,-6.5456,-6.5489,-6.5579,-6.5602,-6.5652,-6.5736,-6.5771,-6.5875,-6.589,-6.6005,-6.6004,-6.5982,-6.5982,-6.6042,-6.6034,-6.6237,-6.6264,-6.6112,-6.6113,-6.6114,0,-6.5092,-6.5161,-6.5244,-6.5293,-6.5334,-6.5412,-6.5464,-6.5495,-6.5548,-6.563,-6.5682,-6.5768,-6.5837,-6.5972,-6.6017,-6.6096,-6.6095,-6.6161,-6.6107,-6.6098,-6.6092,-6.6086,-6.6092,-6.6169,-6.6171,-6.6172,-6.6173,0,-6.5233,-6.5249,-6.5324,-6.5405,-6.5466,-6.5532,-6.5595,-6.5635,-6.5676,-6.5735,-6.5822,-6.5876,-6.5983,-6.6067,-6.6149,-6.6188,-6.6187,-6.6191,-6.6209,-6.62,-6.6183,-6.619,-6.6005,-6.6185,-6.6183,-6.6183,-6.6182,-6.6182,-6.5329,-6.539,-6.5458,-6.554,-6.5592,-6.5652,-6.5714,-6.5755,-6.5829,-6.5918,-6.5933,-6.6025,-6.6091,-6.6202,-6.6245,-6.6317,-6.63,-6.6327,-6.6333,-6.6338,-6.634,-6.6175,-6.6333,-6.6332,-6.6332,-6.6332,-6.6332,0,-6.5467,-6.5512,-6.5588,-6.5677,-6.5742,-6.5739,-6.5809,-6.5863,-6.5945,-6.6007,-6.6076,-6.6176,-6.6258,-6.631,-6.6392,-6.644,-6.6441,-6.646,-6.6455,-6.6463,-6.6353,-6.6327,-6.6458,-6.6458,-6.6457,-6.6457,-6.6457,-6.6457,-6.5547,-6.565,-6.5674,-6.5803,-6.5847,-6.5938,-6.5979,-6.6034,-6.6083,-6.6195,-6.6263,-6.6298,-6.6356,-6.6443,-6.6518,-6.6531,-6.6559,-6.6579,-6.659,-6.6485,-6.6471,-6.6459,-6.6435,-6.6586,-6.6586,-6.6695,-6.6696,-6.6696]},{"header":{"parameterUnit":"m.s-1","parameterCategory":1,"la1":30.2991,"la2":30.254,"lo1":-89.0895,"lo2":-89.0444,"dy":0.0017,"dx":0.0017,"nx":28,"ny":28,"refTime":"2024-04-27T21:00:00:Z","depth":0,"parameterNumber":3,"parameterNumberName":"V-component_of_WINDS"},"data":[0,0,0,0,0,0,0,0,0,0,0,0,0,0,0,0,0,0,0,0,0,0,0,0,0,0,0,0,0,0,0,0,0,0,0,0,0,0,0,0,0,0,0,0,0,0,0,0,0,0,0,0,0,0,0,0,0,0,5.0402,5.0402,0,5.0427,5.0427,5.0428,5.0353,5.0351,5.0349,5.0346,5.037,5.0372,5.0375,0,0,0,0,0,0,0,0,0,0,0,0,0,5.0287,5.0289,5.0402,5.0402,5.0402,5.0427,5.0428,5.0428,5.0354,5.0351,5.0348,5.0345,5.0369,5.0372,5.0375,0,0,0,0,0,0,0,0,0,0,0,0,0,5.0327,5.029,5.0402,5.0368,5.0366,5.0427,5.0428,5.0428,5.0354,5.0351,5.0347,5.0344,5.0368,5.0372,5.0376,5.047,0,0,5.0388,5.039,0,0,0,0,0,0,0,0,5.0325,5.0331,5.0373,5.0371,5.0368,5.0384,5.0395,5.0442,5.0355,5.0358,5.0346,5.0342,5.0377,5.038,5.0392,5.0471,5.0472,5.0389,5.0391,5.0393,5.0394,0,0,0,0,0,0,0,5.0322,5.033,5.0412,5.0374,5.0371,5.0351,5.0353,5.0404,5.0386,5.0358,5.0353,5.0357,5.0375,5.0388,5.0392,5.0472,5.0388,5.0392,5.0395,5.0396,5.063,5.0633,0,0,0,0,0,0,5.0324,5.0328,5.0411,5.0412,5.0337,5.0356,5.0359,5.0382,5.0386,5.0383,5.036,5.0353,5.0383,5.0387,5.0393,5.0503,5.0393,5.0397,5.0399,5.0626,5.0631,5.0635,0,0,0,0,0,0,5.0322,5.0332,5.041,5.0369,5.0377,5.0362,5.0389,5.0384,5.0398,5.0387,5.0383,5.0377,5.0381,5.0387,5.0451,5.0503,5.0399,5.0402,5.0622,5.0628,5.0633,5.0725,0,0,0,0,0,0,5.0319,5.0332,5.0367,5.037,5.038,5.0469,5.0392,5.0387,5.0405,5.0397,5.0402,5.04,5.0378,5.0446,5.0456,5.0507,5.0405,5.0617,5.0624,5.0631,5.0717,5.0733,5.0746,0,0,0,0,0,5.0315,5.0391,5.037,5.038,5.0424,5.0472,5.0477,5.0452,5.041,5.0445,5.0439,5.04,5.0496,5.0453,5.0463,5.0517,5.0614,5.0622,5.063,5.0711,5.073,5.0746,0,0,0,0,0,0,5.0393,5.0391,5.0367,5.0447,5.046,5.0459,5.0503,5.0473,5.0498,5.0489,5.0456,5.0457,5.0528,5.0529,5.0481,5.0608,5.0548,5.0558,5.0605,5.0623,5.0638,5.0635,5.0409,0,0,0,0,0,5.042,5.046,5.0456,5.0526,5.0535,5.0518,5.0538,5.0518,5.053,5.0535,5.0533,5.0546,5.0579,5.0601,5.0631,5.0718,5.0717,5.0759,5.0774,5.0786,5.0796,5.0842,5.086,5.0662,5.0662,5.0662,0,0,5.0475,5.0479,5.0506,5.0542,5.055,5.0592,5.0523,5.057,5.06,5.0541,5.0603,5.0602,5.0614,5.069,5.0724,5.0693,5.0851,5.0797,5.0807,5.0809,5.0852,5.0871,5.0888,5.0668,5.0667,5.0666,0,0,5.0597,5.0605,5.0665,5.0675,5.0689,5.0678,5.0693,5.0697,5.0695,5.0756,5.0713,5.0749,5.0806,5.0817,5.083,5.0959,5.0924,5.097,5.1046,5.1091,5.1107,5.1121,5.1167,5.1183,5.0979,5.098,5.098,0,5.0664,5.0726,5.0699,5.0749,5.0767,5.0718,5.0778,5.0789,5.0812,5.0825,5.079,5.0863,5.0868,5.0946,5.0978,5.099,5.1006,5.0968,5.1107,5.1121,5.1133,5.1176,5.1194,5.0985,5.0984,5.0984,5.0983,0,5.0807,5.085,5.0897,5.0922,5.0945,5.1,5.0982,5.1008,5.0987,5.0979,5.1043,5.1047,5.1077,5.1095,5.1073,5.1171,5.1151,5.1113,5.1051,5.1158,5.1198,5.1214,5.0993,5.0991,5.0989,5.0988,0,0,5.0977,5.0988,5.1006,5.1017,5.103,5.1063,5.1116,5.1147,5.1171,5.1189,5.1232,5.1283,5.1249,5.1263,5.1243,5.1283,5.1386,5.124,5.124,5.1267,5.1493,5.1522,5.1541,5.1363,5.1366,5.1369,5.1492,0,5.1097,5.1189,5.1168,5.1259,5.1299,5.1254,5.1301,5.1314,5.1309,5.1342,5.1335,5.1373,5.1324,5.1333,5.1371,5.1365,5.1431,5.1356,5.1403,5.1405,5.14,5.1562,5.1592,5.1708,5.1508,5.151,5.1512,0,5.1249,5.1274,5.137,5.1378,5.1394,5.1436,5.1464,5.1496,5.151,5.1503,5.1522,5.1494,5.1546,5.1486,5.1557,5.1507,5.1525,5.1526,5.153,5.1532,5.1464,5.1569,5.1745,5.1762,5.1537,5.1535,5.1533,0,5.1363,5.1421,5.1486,5.1497,5.1508,5.1539,5.1545,5.1555,5.1576,5.16,5.1613,5.1643,5.1659,5.1682,5.1663,5.1621,5.1739,5.1676,5.1734,5.1735,5.176,5.1758,5.1941,5.1773,5.1773,5.1772,5.1772,0,5.1499,5.1559,5.1538,5.1578,5.1644,5.1619,5.1685,5.1686,5.1696,5.1735,5.1698,5.1735,5.1708,5.1743,5.1729,5.1791,5.1798,5.1794,5.1789,5.1797,5.1798,5.1807,5.1799,5.1777,5.1776,5.1775,5.1774,0,5.1637,5.1625,5.1693,5.1699,5.1702,5.175,5.1755,5.1792,5.1785,5.1835,5.1845,5.1834,5.1874,5.1858,5.1899,5.1889,5.1968,5.1953,5.1964,5.196,5.2019,5.2014,5.2213,5.2238,5.2055,5.2057,5.2059,0,5.1724,5.1769,5.1781,5.1805,5.1814,5.1853,5.1875,5.1853,5.1876,5.1897,5.1932,5.1968,5.1996,5.2061,5.2056,5.2088,5.2072,5.2141,5.2077,5.2083,5.2073,5.207,5.2075,5.2153,5.2155,5.2157,5.2158,0,5.188,5.1872,5.1905,5.1937,5.1964,5.1988,5.2008,5.203,5.2009,5.2038,5.2078,5.21,5.2143,5.218,5.2208,5.2213,5.2183,5.2179,5.2194,5.2201,5.2206,5.2204,5.1998,5.2174,5.2172,5.2171,5.217,5.2169,5.1994,5.2033,5.2048,5.2086,5.21,5.212,5.2156,5.2154,5.2188,5.2222,5.2207,5.2254,5.2268,5.2303,5.2313,5.2349,5.2323,5.2344,5.235,5.2355,5.2363,5.2201,5.2354,5.2354,5.2353,5.2353,5.2353,0,5.2148,5.2156,5.2192,5.2222,5.2253,5.2223,5.2244,5.2271,5.2314,5.233,5.2359,5.2406,5.2442,5.2441,5.2474,5.2503,5.249,5.2513,5.251,5.2512,5.2385,5.2369,5.2523,5.2523,5.2523,5.2523,5.2523,5.2523,5.2232,5.2296,5.2291,5.2362,5.2369,5.2416,5.2431,5.2449,5.2462,5.2517,5.2547,5.2547,5.2556,5.259,5.2622,5.262,5.2634,5.2662,5.2656,5.2537,5.252,5.2504,5.2489,5.2665,5.2666,5.2779,5.278,5.2781]}]]